Weather History for KMNM - October, 2012

Change the Weather History Date:

Tuesday, October 2, 2012

  Actual Average Record
Temperature  
Mean Temperature 54 °F -  
Max Temperature 62 °F 65 °F 83 °F (1971)
Min Temperature 46 °F 44 °F 21 °F (1974)
Degree Days  
Heating Degree Days 11    
Growing Degree Days 4 (Base 50)    
Moisture  
Dew Point 48 °F    
Average Humidity 79    
Maximum Humidity 100    
Minimum Humidity 59    
Precipitation  
Precipitation 0.00 in - - ()
Sea Level Pressure  
Sea Level Pressure 29.93 in    
Wind  
Wind Speed 6 mph (ENE)    
Max Wind Speed 12 mph    
Max Gust Speed -    
Visibility 10 miles    
Events      
Averages and records for this station are not official NWS values.
T = Trace of Precipitation, MM = Missing Value Source: NWS Daily Summary

Daily Weather History Graph

Daily Weather History Graph

Search for Another Location

Airport or City:

Trip Planner

Search our weather history database for the weather conditions in past years. The results will help you decide how hot, cold, wet, or windy it might be!

Date:

Astronomy

Oct. 02, 2012 Rise Set
Actual Time 6:50 AM CDT 6:28 PM CDT
Civil Twilight 6:21 AM CDT 6:57 PM CDT
Nautical Twilight 5:47 AM CDT 7:31 PM CDT
Astronomical Twilight 5:12 AM CDT 8:05 PM CDT
Moon 7:31 PM CDT (10/2) 9:26 AM CDT (10/2)
Length of Visible Light 12h 36m
Length of Day
11h 37m
Waning Gibbous, 94% of the Moon is Illuminated
Oct 2
Waning Gibbous
Oct 8
Last Quarter
Oct 15
New
Oct 21
First Quarter
Oct 29
Full

Hourly Weather History & Observations

Time (CDT) Temp. Dew Point Humidity Pressure Visibility Wind Dir Wind Speed Gust Speed Precip Events Conditions
12:35 AM 51.8 °F 48.2 °F 88% 29.88 in 10.0 mi NNE 5.8 mph - N/A   Clear
12:55 AM 51.8 °F 48.2 °F 88% 29.88 in 10.0 mi NE 4.6 mph - N/A   Clear
1:35 AM 53.6 °F 48.2 °F 82% 29.89 in 10.0 mi North 4.6 mph - N/A   Clear
2:15 AM 51.8 °F 48.2 °F 88% 29.89 in 10.0 mi North 4.6 mph - N/A   Clear
2:35 AM 48.2 °F 46.4 °F 93% 29.89 in 10.0 mi NNW 3.5 mph - N/A   Clear
2:55 AM 48.2 °F 46.4 °F 93% 29.89 in 10.0 mi NNW 8.1 mph - N/A   Clear
3:15 AM 48.2 °F 46.4 °F 93% 29.89 in 10.0 mi North 5.8 mph - N/A   Clear
3:35 AM 46.4 °F 46.4 °F 100% 29.89 in 10.0 mi Calm Calm - N/A   Clear
5:55 AM 50.0 °F 48.2 °F 94% 29.92 in 10.0 mi North 8.1 mph - N/A   Overcast
6:15 AM 50.0 °F 48.2 °F 94% 29.93 in 10.0 mi North 8.1 mph - N/A   Overcast
6:35 AM 48.2 °F 46.4 °F 93% 29.93 in 10.0 mi North 5.8 mph - N/A   Mostly Cloudy
6:55 AM 48.2 °F 46.4 °F 93% 29.93 in 10.0 mi North 9.2 mph - N/A   Scattered Clouds
7:15 AM 48.2 °F 46.4 °F 93% 29.95 in 10.0 mi NNW 8.1 mph - N/A   Overcast
7:35 AM 48.2 °F 46.4 °F 93% 29.95 in 10.0 mi North 8.1 mph - N/A   Overcast
7:55 AM 48.2 °F 46.4 °F 93% 29.95 in 10.0 mi North 8.1 mph - N/A   Overcast
8:15 AM 48.2 °F 46.4 °F 93% 29.95 in 10.0 mi North 9.2 mph - N/A   Overcast
8:35 AM 50.0 °F 46.4 °F 87% 29.96 in 10.0 mi North 10.4 mph - N/A   Overcast
8:55 AM 51.8 °F 46.4 °F 82% 29.96 in 10.0 mi North 8.1 mph - N/A   Mostly Cloudy
9:15 AM 51.8 °F 46.4 °F 82% 29.97 in 10.0 mi North 6.9 mph - N/A   Scattered Clouds
9:35 AM 55.4 °F 48.2 °F 77% 29.97 in 10.0 mi North 6.9 mph - N/A   Partly Cloudy
9:55 AM 57.2 °F 48.2 °F 72% 29.96 in 10.0 mi ENE 6.9 mph - N/A   Clear
10:35 AM 59.0 °F 48.2 °F 67% 29.96 in 10.0 mi NE 9.2 mph - N/A   Clear
10:55 AM 59.0 °F 48.2 °F 67% 29.96 in 10.0 mi NE 6.9 mph - N/A   Clear
11:15 AM 59.0 °F 48.2 °F 67% 29.96 in 10.0 mi ESE 8.1 mph - N/A   Clear
11:55 AM 60.8 °F 48.2 °F 63% 29.96 in 10.0 mi ESE 9.2 mph - N/A   Clear
12:15 PM 60.8 °F 48.2 °F 63% 29.96 in 10.0 mi ESE 10.4 mph - N/A   Clear
12:35 PM 60.8 °F 48.2 °F 63% 29.96 in 10.0 mi East 10.4 mph - N/A   Clear
12:55 PM 60.8 °F 48.2 °F 63% 29.95 in 10.0 mi East 11.5 mph - N/A   Clear
1:15 PM 60.8 °F 46.4 °F 59% 29.94 in 10.0 mi ESE 8.1 mph - N/A   Clear
1:35 PM 60.8 °F 48.2 °F 63% 29.93 in 10.0 mi ESE 9.2 mph - N/A   Clear
1:55 PM 60.8 °F 48.2 °F 63% 29.93 in 10.0 mi ESE 8.1 mph - N/A   Clear
2:15 PM 60.8 °F 50.0 °F 68% 29.93 in 10.0 mi ESE 9.2 mph - N/A   Clear
2:35 PM 60.8 °F 50.0 °F 68% 29.93 in 10.0 mi East 9.2 mph - N/A   Clear
2:55 PM 60.8 °F 51.8 °F 72% 29.93 in 10.0 mi ESE 9.2 mph - N/A   Clear
3:15 PM 60.8 °F 50.0 °F 68% 29.92 in 10.0 mi ESE 8.1 mph - N/A   Clear
3:35 PM 60.8 °F 51.8 °F 72% 29.92 in 10.0 mi ESE 8.1 mph - N/A   Clear
3:55 PM 60.8 °F 51.8 °F 72% 29.92 in 10.0 mi ESE 9.2 mph - N/A   Clear
4:15 PM 60.8 °F 51.8 °F 72% 29.92 in 10.0 mi ESE 5.8 mph - N/A   Clear
4:35 PM 62.6 °F 48.2 °F 59% 29.92 in 10.0 mi ESE 5.8 mph - N/A   Clear
4:55 PM 62.6 °F 48.2 °F 59% 29.92 in 10.0 mi ESE 5.8 mph - N/A   Clear
5:15 PM 60.8 °F 48.2 °F 63% 29.92 in 10.0 mi ESE 5.8 mph - N/A   Clear
5:35 PM 60.8 °F 48.2 °F 63% 29.93 in 10.0 mi ESE 4.6 mph - N/A   Clear
5:55 PM 60.8 °F 50.0 °F 68% 29.93 in 10.0 mi ESE 3.5 mph - N/A   Clear
6:15 PM 57.2 °F 48.2 °F 72% 29.93 in 10.0 mi SE 4.6 mph - N/A   Clear
6:35 PM 57.2 °F 50.0 °F 77% 29.93 in 10.0 mi Calm Calm - N/A   Clear
7:55 PM 51.8 °F 48.2 °F 88% 29.95 in 10.0 mi Calm Calm - N/A   Clear
8:15 PM 50.0 °F 48.2 °F 94% 29.95 in 10.0 mi Calm Calm - N/A   Clear
8:35 PM 51.8 °F 50.0 °F 94% 29.96 in 9.0 mi Calm Calm - N/A   Clear
8:55 PM 51.8 °F 51.8 °F 100% 29.96 in 10.0 mi Calm Calm - N/A   Clear
9:15 PM 50.0 °F 50.0 °F 100% 29.96 in 10.0 mi Calm Calm - N/A   Clear
11:55 PM 46.4 °F 44.6 °F 93% 29.97 in 1.5 mi Calm Calm - N/A   Mostly Cloudy